User: anonymous   Login
Location: Unspecified
(0.0000°N, 0.0000°E)
Time: 05:25:20
(UTC+00:00)
Language:

NOAA 17 - Orbit

View from above orbital plane
View from above orbital plane
View from above satellite
View from above satellite

Ground track
Ground track

The orbit data is extracted from the following two-line orbital elements,

1 27453U 02032A   17056.54873167 -.00000001  00000-0  17494-4 0  9999
2 27453  98.4201  25.4610 0011973 161.3709 198.7911 14.24977669762863
Epoch (UTC): 25 February 2017 13:10:10
Eccentricity: 0.0011973
inclination: 98.4201°
perigee height: 800 km
apogee height: 817 km
right ascension of ascending node: 25.4610°
argument of perigee: 161.3709°
revolutions per day: 14.24977669
mean anomaly at epoch: 198.7911°
orbit number at epoch: 76286

The dashed part of the orbit path shows where the satellite is in the earth's shadow,  

DLR